| time (UTC) | temp F | wind direction | speed MPH | gust MPH | rain 1hr in | rain 24hr in | rain mn in | humidity % | barometer mb |
| 20260505083057 | 70 | 157 | 1.0 | 2.0 | 0.00 | 0.00 | 0.00 | 77 | 4233.7 |
| 20260505082553 | 70 | 186 | 1.0 | 1.0 | 0.00 | 0.00 | 0.00 | 77 | 4233.6 |
| 20260505082050 | 70 | 223 | 1.0 | 1.0 | 0.00 | 0.00 | 0.00 | 77 | 4233.7 |
| 20260505081547 | 70 | 129 | 2.0 | 2.0 | 0.00 | 0.00 | 0.00 | 77 | 4233.8 |
| 20260505081044 | 70 | 340 | 2.0 | 2.0 | 0.00 | 0.00 | 0.00 | 77 | 4233.8 |
| 20260505080540 | 70 | 197 | 1.0 | 1.0 | 0.00 | 0.00 | 0.00 | 77 | 4233.9 |
| 20260505080037 | 70 | 151 | 2.0 | 2.0 | 0.00 | 0.00 | 0.00 | 77 | 4234.0 |
| 20260505075533 | 70 | 109 | 2.0 | 2.0 | 0.00 | 0.00 | 0.00 | 76 | 4233.9 |
| 20260505075030 | 70 | 222 | 4.0 | 5.0 | 0.00 | 0.00 | 0.00 | 77 | 4233.9 |
| 20260505074527 | 70 | 125 | 1.0 | 2.0 | 0.00 | 0.00 | 0.00 | 77 | 4233.8 |
| 20260505074024 | 70 | 188 | 1.0 | 2.0 | 0.00 | 0.00 | 0.00 | 76 | 4234.3 |
| 20260505073521 | 70 | 181 | 2.0 | 3.0 | 0.00 | 0.00 | 0.00 | 76 | 4234.1 |
| 20260505073020 | 70 | 176 | 1.0 | 1.0 | 0.00 | 0.00 | 0.00 | 76 | 4234.0 |
| 20260505072515 | 70 | 243 | 1.0 | 2.0 | 0.00 | 0.00 | 0.00 | 76 | 4234.1 |
| 20260505072011 | 70 | 50 | 1.0 | 2.0 | 0.00 | 0.00 | 0.00 | 76 | 4234.3 |
| 20260505071507 | 70 | 201 | 2.0 | 2.0 | 0.00 | 0.00 | 0.00 | 76 | 4234.3 |
| 20260505071005 | 70 | 212 | 2.0 | 2.0 | 0.00 | 0.00 | 0.00 | 76 | 4234.3 |
| 20260505070502 | 71 | 159 | 1.0 | 2.0 | 0.00 | 0.00 | 0.00 | 76 | 4234.3 |
| 20260505065957 | 71 | 170 | 1.0 | 1.0 | 0.00 | 0.00 | 0.00 | 75 | 4234.5 |
| 20260505065454 | 71 | 212 | 1.0 | 2.0 | 0.00 | 0.00 | 0.00 | 75 | 4234.6 |
| 20260505064951 | 71 | 176 | 1.0 | 1.0 | 0.00 | 0.00 | 0.00 | 74 | 4234.6 |
| 20260505064448 | 71 | 152 | 1.0 | 1.0 | 0.00 | 0.00 | 0.00 | 74 | 4234.5 |
| 20260505063946 | 71 | 191 | 1.0 | 1.0 | 0.00 | 0.00 | 0.00 | 74 | 4234.7 |
| 20260505063442 | 71 | 169 | 1.0 | 1.0 | 0.00 | 0.00 | 0.00 | 74 | 4234.7 |
| 20260505062939 | 71 | 186 | 2.0 | 2.0 | 0.00 | 0.00 | 0.00 | 74 | 4234.7 |
| 20260505062436 | 71 | 125 | 1.0 | 1.0 | 0.00 | 0.00 | 0.00 | 74 | 4234.6 |
| 20260505061932 | 71 | 140 | 2.0 | 2.0 | 0.00 | 0.00 | 0.00 | 74 | 4234.7 |
| 20260505061431 | 71 | 159 | 1.0 | 1.0 | 0.00 | 0.00 | 0.00 | 73 | 4234.9 |
| 20260505060928 | 71 | 191 | 1.0 | 1.0 | 0.00 | 0.00 | 0.00 | 73 | 4235.0 |
| 20260505060425 | 71 | 169 | 1.0 | 1.0 | 0.00 | 0.00 | 0.00 | 73 | 4234.9 |
| 20260505055921 | 71 | 159 | 1.0 | 2.0 | 0.00 | 0.00 | 0.00 | 73 | 4234.8 |
| 20260505055418 | 71 | 204 | 2.0 | 2.0 | 0.00 | 0.00 | 0.00 | 73 | 4235.1 |
| 20260505054914 | 71 | 187 | 2.0 | 3.0 | 0.00 | 0.00 | 0.00 | 72 | 4234.9 |
| 20260505054412 | 71 | 162 | 2.0 | 2.0 | 0.00 | 0.00 | 0.00 | 72 | 4234.9 |
| 20260505053910 | 71 | 201 | 1.0 | 2.0 | 0.00 | 0.00 | 0.00 | 72 | 4235.2 |
| 20260505053407 | 71 | 172 | 1.0 | 1.0 | 0.00 | 0.00 | 0.00 | 72 | 4235.3 |
| 20260505052903 | 71 | 166 | 2.0 | 2.0 | 0.00 | 0.00 | 0.00 | 72 | 4235.2 |
| 20260505052400 | 71 | 150 | 1.0 | 1.0 | 0.00 | 0.00 | 0.00 | 72 | 4235.2 |
| 20260505051857 | 71 | 174 | 1.0 | 2.0 | 0.00 | 0.00 | 0.00 | 71 | 4235.3 |
| 20260505051354 | 71 | 156 | 1.0 | 1.0 | 0.00 | 0.00 | 0.00 | 71 | 4235.5 |
| 20260505050853 | 71 | 203 | 1.0 | 1.0 | 0.00 | 0.00 | 0.00 | 71 | 4235.2 |
| 20260505050351 | 71 | 153 | 0.0 | 1.0 | 0.00 | 0.00 | 0.00 | 70 | 4235.1 |
| 20260505041318 | 71 | 156 | 1.0 | 1.0 | 0.00 | 0.00 | 0.00 | 68 | 4235.3 |
| 20260505040815 | 70 | 135 | 2.0 | 2.0 | 0.00 | 0.00 | 0.00 | 68 | 4235.2 |
| 20260505040313 | 70 | 168 | 1.0 | 1.0 | 0.00 | 0.00 | 0.00 | 67 | 4235.4 |
| 20260505035809 | 71 | 139 | 1.0 | 1.0 | 0.00 | 0.00 | 0.00 | 67 | 4235.4 |
| 20260505035305 | 71 | 146 | 1.0 | 1.0 | 0.00 | 0.00 | 0.00 | 66 | 4235.3 |
| 20260505034803 | 71 | 147 | 1.0 | 2.0 | 0.00 | 0.00 | 0.00 | 66 | 4235.6 |
| 20260505034259 | 71 | 134 | 1.0 | 1.0 | 0.00 | 0.00 | 0.00 | 65 | 4235.7 |
| 20260505033756 | 72 | 150 | 1.0 | 1.0 | 0.00 | 0.00 | 0.00 | 64 | 4235.6 |
| 20260505033253 | 72 | 144 | 1.0 | 1.0 | 0.00 | 0.00 | 0.00 | 63 | 4235.5 |
| 20260505032751 | 72 | 144 | 0.0 | 0.0 | 0.00 | 0.00 | 0.00 | 63 | 4235.6 |
| 20260505032247 | 72 | 150 | 0.0 | 0.0 | 0.00 | 0.00 | 0.00 | 63 | 4235.4 |
| 20260505031744 | 72 | 154 | 1.0 | 1.0 | 0.00 | 0.00 | 0.00 | 62 | 4235.4 |
| 20260505031241 | 72 | 128 | 0.0 | 1.0 | 0.00 | 0.00 | 0.00 | 63 | 4235.3 |
| 20260505030738 | 72 | 134 | 0.0 | 0.0 | 0.00 | 0.00 | 0.00 | 62 | 4235.3 |
| 20260505030234 | 72 | 143 | 0.0 | 0.0 | 0.00 | 0.00 | 0.00 | 62 | 4235.2 |
| 20260505025730 | 72 | 145 | 0.0 | 0.0 | 0.00 | 0.00 | 0.00 | 62 | 4235.3 |
| 20260505025228 | 72 | 141 | 0.0 | 1.0 | 0.00 | 0.00 | 0.00 | 62 | 4235.6 |
| 20260505024726 | 72 | 143 | 0.0 | 0.0 | 0.00 | 0.00 | 0.00 | 61 | 4235.3 |
| 20260505024223 | 72 | 138 | 0.0 | 1.0 | 0.00 | 0.00 | 0.00 | 61 | 4235.4 |
| 20260505023720 | 72 | 143 | 0.0 | 0.0 | 0.00 | 0.00 | 0.00 | 61 | 4235.3 |
| 20260505023217 | 72 | 140 | 0.0 | 1.0 | 0.00 | 0.00 | 0.00 | 61 | 4235.3 |
| 20260505022715 | 73 | 141 | 0.0 | 0.0 | 0.00 | 0.00 | 0.00 | 60 | 4235.4 |
| 20260505022211 | 73 | 150 | 1.0 | 1.0 | 0.00 | 0.00 | 0.00 | 60 | 4235.3 |
| 20260505021708 | 73 | 149 | 0.0 | 0.0 | 0.00 | 0.00 | 0.00 | 59 | 4235.3 |
| 20260505021205 | 73 | 139 | 0.0 | 1.0 | 0.00 | 0.00 | 0.00 | 59 | 4235.2 |
| 20260505020701 | 73 | 141 | 0.0 | 0.0 | 0.00 | 0.00 | 0.00 | 59 | 4235.4 |
| 20260505020156 | 73 | 146 | 0.0 | 0.0 | 0.00 | 0.00 | 0.00 | 58 | 4235.2 |
| 20260505015654 | 73 | 158 | 0.0 | 0.0 | 0.00 | 0.00 | 0.00 | 58 | 4235.2 |
| 20260505015150 | 74 | 152 | 1.0 | 1.0 | 0.00 | 0.00 | 0.00 | 57 | 4235.1 |
| 20260505014648 | 74 | 152 | 0.0 | 0.0 | 0.00 | 0.00 | 0.00 | 57 | 4235.1 |
| 20260505014145 | 74 | 145 | 1.0 | 1.0 | 0.00 | 0.00 | 0.00 | 57 | 4235.1 |
| 20260505013642 | 74 | 157 | 1.0 | 1.0 | 0.00 | 0.00 | 0.00 | 56 | 4235.1 |
| 20260505013139 | 74 | 135 | 1.0 | 1.0 | 0.00 | 0.00 | 0.00 | 56 | 4235.1 |
| 20260505012637 | 75 | 145 | 0.0 | 0.0 | 0.00 | 0.00 | 0.00 | 55 | 4235.1 |
| 20260505012134 | 75 | 144 | 1.0 | 1.0 | 0.00 | 0.00 | 0.00 | 54 | 4235.2 |
| 20260505011630 | 75 | 154 | 0.0 | 1.0 | 0.00 | 0.00 | 0.00 | 54 | 4235.1 |
| 20260505011127 | 75 | 150 | 1.0 | 1.0 | 0.00 | 0.00 | 0.00 | 53 | 4235.0 |
| 20260505010627 | 75 | 140 | 1.0 | 1.0 | 0.00 | 0.00 | 0.00 | 53 | 4235.1 |
| 20260505010125 | 76 | 150 | 0.0 | 1.0 | 0.00 | 0.00 | 0.00 | 52 | 4234.9 |
| 20260505005620 | 76 | 139 | 0.0 | 0.0 | 0.00 | 0.00 | 0.00 | 52 | 4235.0 |
| 20260505005118 | 76 | 178 | 1.0 | 1.0 | 0.00 | 0.00 | 0.00 | 52 | 4235.1 |
| 20260505004615 | 77 | 150 | 0.0 | 1.0 | 0.00 | 0.00 | 0.00 | 51 | 4234.7 |
| 20260505004112 | 77 | 152 | 1.0 | 2.0 | 0.00 | 0.00 | 0.00 | 51 | 4234.9 |
| 20260505003609 | 77 | 142 | 0.0 | 0.0 | 0.00 | 0.00 | 0.00 | 50 | 4235.0 |
| 20260505003106 | 77 | 146 | 0.0 | 0.0 | 0.00 | 0.00 | 0.00 | 49 | 4235.0 |
| 20260505002602 | 77 | 146 | 1.0 | 1.0 | 0.00 | 0.00 | 0.00 | 49 | 4235.3 |
| 20260505002101 | 77 | 136 | 1.0 | 1.0 | 0.00 | 0.00 | 0.00 | 49 | 4235.0 |
| 20260505001557 | 78 | 207 | 3.0 | 3.0 | 0.00 | 0.00 | 0.00 | 48 | 4235.2 |
| 20260505001055 | 78 | 141 | 1.0 | 2.0 | 0.00 | 0.00 | 0.00 | 48 | 4235.3 |
| 20260505000552 | 78 | 181 | 1.0 | 1.0 | 0.00 | 0.00 | 0.00 | 47 | 4235.1 |
| 20260505000049 | 78 | 142 | 1.0 | 1.0 | 0.00 | 0.00 | 0.00 | 47 | 4235.3 |
| 20260504235546 | 78 | 138 | 0.0 | 0.0 | 0.00 | 0.00 | 0.00 | 47 | 4235.2 |
| 20260504235043 | 78 | 175 | 1.0 | 1.0 | 0.00 | 0.00 | 0.00 | 46 | 4235.6 |
| 20260504234540 | 79 | 143 | 1.0 | 2.0 | 0.00 | 0.00 | 0.00 | 45 | 4235.5 |
| 20260504234037 | 79 | 187 | 2.0 | 2.0 | 0.00 | 0.00 | 0.00 | 45 | 4235.4 |
| 20260504233532 | 80 | 164 | 1.0 | 1.0 | 0.00 | 0.00 | 0.00 | 45 | 4235.5 |
| 20260504233029 | 80 | 118 | 0.0 | 0.0 | 0.00 | 0.00 | 0.00 | 44 | 4235.6 |
| 20260504232526 | 80 | 140 | 1.0 | 1.0 | 0.00 | 0.00 | 0.00 | 44 | 4235.8 |
| 20260504232024 | 80 | 166 | 1.0 | 1.0 | 0.00 | 0.00 | 0.00 | 43 | 4235.7 |
| 20260504231520 | 80 | 181 | 2.0 | 2.0 | 0.00 | 0.00 | 0.00 | 42 | 4235.5 |
| 20260504231016 | 80 | 159 | 1.0 | 2.0 | 0.00 | 0.00 | 0.00 | 44 | 4235.7 |
| 20260504230513 | 80 | 142 | 1.0 | 2.0 | 0.00 | 0.00 | 0.00 | 44 | 4235.6 |
| 20260504230012 | 80 | 133 | 1.0 | 1.0 | 0.00 | 0.00 | 0.00 | 43 | 4236.1 |
| 20260504225508 | 81 | 140 | 1.0 | 1.0 | 0.00 | 0.00 | 0.00 | 42 | 4236.0 |
| 20260504225005 | 81 | 167 | 1.0 | 2.0 | 0.00 | 0.00 | 0.00 | 41 | 4235.7 |
| 20260504224502 | 81 | 222 | 2.0 | 2.0 | 0.00 | 0.00 | 0.00 | 40 | 4236.1 |
| 20260504223959 | 81 | 148 | 1.0 | 1.0 | 0.00 | 0.00 | 0.00 | 39 | 4236.1 |
| 20260504223455 | 81 | 194 | 3.0 | 5.0 | 0.00 | 0.00 | 0.00 | 39 | 4236.2 |
| 20260504222951 | 82 | 218 | 3.0 | 5.0 | 0.00 | 0.00 | 0.00 | 40 | 4236.2 |
| 20260504222449 | 82 | 166 | 4.0 | 5.0 | 0.00 | 0.00 | 0.00 | 40 | 4236.3 |
| 20260504221946 | 83 | 193 | 3.0 | 5.0 | 0.00 | 0.00 | 0.00 | 38 | 4236.2 |
| 20260504221443 | 83 | 151 | 3.0 | 5.0 | 0.00 | 0.00 | 0.00 | 37 | 4236.3 |
| 20260504220940 | 83 | 199 | 4.0 | 7.0 | 0.00 | 0.00 | 0.00 | 37 | 4236.3 |
| 20260504220436 | 84 | 175 | 2.0 | 2.0 | 0.00 | 0.00 | 0.00 | 38 | 4236.4 |
| 20260504215934 | 84 | 176 | 2.0 | 2.0 | 0.00 | 0.00 | 0.00 | 39 | 4236.7 |
| 20260504215431 | 84 | 201 | 2.0 | 2.0 | 0.00 | 0.00 | 0.00 | 38 | 4236.3 |
| 20260504214927 | 84 | 218 | 3.0 | 5.0 | 0.00 | 0.00 | 0.00 | 37 | 4236.7 |
| 20260504214423 | 84 | 142 | 1.0 | 1.0 | 0.00 | 0.00 | 0.00 | 37 | 4236.6 |
| 20260504213920 | 84 | 196 | 2.0 | 5.0 | 0.00 | 0.00 | 0.00 | 37 | 4236.9 |
| 20260504213416 | 84 | 150 | 1.0 | 2.0 | 0.00 | 0.00 | 0.00 | 38 | 4236.7 |
| 20260504212914 | 85 | 222 | 3.0 | 8.0 | 0.00 | 0.00 | 0.00 | 36 | 4236.7 |
| 20260504212409 | 85 | 252 | 3.0 | 5.0 | 0.00 | 0.00 | 0.00 | 36 | 4236.9 |
| 20260504211908 | 84 | 153 | 2.0 | 2.0 | 0.00 | 0.00 | 0.00 | 39 | 4237.1 |
| 20260504211403 | 83 | 187 | 2.0 | 3.0 | 0.00 | 0.00 | 0.00 | 37 | 4237.2 |
| 20260504210900 | 85 | 194 | 3.0 | 3.0 | 0.00 | 0.00 | 0.00 | 35 | 4237.4 |
| 20260504210357 | 86 | 179 | 3.0 | 5.0 | 0.00 | 0.00 | 0.00 | 36 | 4237.4 |
| 20260504205854 | 86 | 228 | 2.0 | 2.0 | 0.00 | 0.00 | 0.00 | 36 | 4237.5 |
| 20260504205352 | 85 | 79 | 2.0 | 2.0 | 0.00 | 0.00 | 0.00 | 38 | 4237.6 |
| 20260504204850 | 85 | 193 | 1.0 | 1.0 | 0.00 | 0.00 | 0.00 | 37 | 4237.8 |
| 20260504204348 | 84 | 189 | 2.0 | 3.0 | 0.00 | 0.00 | 0.00 | 36 | 4237.7 |
| 20260504203848 | 84 | 158 | 2.0 | 2.0 | 0.00 | 0.00 | 0.00 | 39 | 4238.0 |
| 20260504203344 | 84 | 224 | 2.0 | 3.0 | 0.00 | 0.00 | 0.00 | 38 | 4238.1 |
| 20260504202840 | 84 | 219 | 3.0 | 5.0 | 0.00 | 0.00 | 0.00 | 35 | 4238.2 |
| 20260504202337 | 85 | 224 | 1.0 | 2.0 | 0.00 | 0.00 | 0.00 | 38 | 4238.0 |
| 20260504201833 | 85 | 200 | 1.0 | 2.0 | 0.00 | 0.00 | 0.00 | 37 | 4238.3 |
| 20260504201331 | 85 | 125 | 4.0 | 6.0 | 0.00 | 0.00 | 0.00 | 34 | 4238.4 |
| 20260504200828 | 85 | 167 | 2.0 | 2.0 | 0.00 | 0.00 | 0.00 | 35 | 4238.6 |
| 20260504200325 | 84 | 240 | 4.0 | 6.0 | 0.00 | 0.00 | 0.00 | 35 | 4238.5 |
| 20260504195821 | 84 | 103 | 1.0 | 3.0 | 0.00 | 0.00 | 0.00 | 39 | 4238.9 |
| 20260504195317 | 84 | 172 | 2.0 | 3.0 | 0.00 | 0.00 | 0.00 | 38 | 4238.8 |
| 20260504194814 | 83 | 122 | 2.0 | 3.0 | 0.00 | 0.00 | 0.00 | 36 | 4239.1 |
| 20260504194310 | 83 | 133 | 2.0 | 3.0 | 0.00 | 0.00 | 0.00 | 36 | 4239.2 |
| 20260504193806 | 83 | 147 | 3.0 | 5.0 | 0.00 | 0.00 | 0.00 | 37 | 4239.1 |
| 20260504193304 | 83 | 134 | 2.0 | 3.0 | 0.00 | 0.00 | 0.00 | 38 | 4239.3 |
| 20260504192802 | 83 | 167 | 2.0 | 3.0 | 0.00 | 0.00 | 0.00 | 37 | 4239.3 |
| 20260504192300 | 82 | 152 | 2.0 | 3.0 | 0.00 | 0.00 | 0.00 | 38 | 4239.4 |
| 20260504191758 | 83 | 140 | 5.0 | 7.0 | 0.00 | 0.00 | 0.00 | 38 | 4239.3 |
| 20260504191255 | 82 | 316 | 4.0 | 5.0 | 0.00 | 0.00 | 0.00 | 38 | 4239.5 |
| 20260504190750 | 82 | 96 | 2.0 | 2.0 | 0.00 | 0.00 | 0.00 | 37 | 4239.5 |
| 20260504190247 | 82 | 194 | 1.0 | 1.0 | 0.00 | 0.00 | 0.00 | 38 | 4239.6 |
| 20260504185744 | 82 | 154 | 2.0 | 5.0 | 0.00 | 0.00 | 0.00 | 39 | 4239.7 |
| 20260504185241 | 82 | 246 | 2.0 | 2.0 | 0.00 | 0.00 | 0.00 | 39 | 4239.7 |
| 20260504184737 | 83 | 187 | 3.0 | 5.0 | 0.00 | 0.00 | 0.00 | 35 | 4239.7 |
| 20260504184232 | 82 | 153 | 2.0 | 2.0 | 0.00 | 0.00 | 0.00 | 36 | 4239.9 |
| 20260504183728 | 83 | 194 | 2.0 | 3.0 | 0.00 | 0.00 | 0.00 | 37 | 4240.3 |
| 20260504183226 | 84 | 124 | 3.0 | 6.0 | 0.00 | 0.00 | 0.00 | 38 | 4240.0 |
| 20260504182724 | 82 | 173 | 1.0 | 2.0 | 0.00 | 0.00 | 0.00 | 38 | 4240.1 |
| 20260504182221 | 83 | 195 | 2.0 | 2.0 | 0.00 | 0.00 | 0.00 | 37 | 4240.0 |
| 20260504181718 | 82 | 356 | 2.0 | 2.0 | 0.00 | 0.00 | 0.00 | 38 | 4240.4 |
| 20260504181215 | 81 | 124 | 3.0 | 3.0 | 0.00 | 0.00 | 0.00 | 38 | 4240.4 |
| 20260504180715 | 82 | 191 | 4.0 | 5.0 | 0.00 | 0.00 | 0.00 | 39 | 4240.5 |
| 20260504180213 | 81 | 213 | 2.0 | 3.0 | 0.00 | 0.00 | 0.00 | 40 | 4240.5 |
| 20260504175710 | 80 | 196 | 2.0 | 3.0 | 0.00 | 0.00 | 0.00 | 38 | 4240.6 |
| 20260504175206 | 80 | 111 | 2.0 | 3.0 | 0.00 | 0.00 | 0.00 | 39 | 4240.7 |
| 20260504174704 | 82 | 77 | 4.0 | 5.0 | 0.00 | 0.00 | 0.00 | 37 | 4240.5 |
| 20260504174202 | 81 | 142 | 0.0 | 1.0 | 0.00 | 0.00 | 0.00 | 39 | 4240.8 |
| 20260504173658 | 80 | 178 | 2.0 | 3.0 | 0.00 | 0.00 | 0.00 | 39 | 4240.8 |
| 20260504173155 | 80 | 132 | 0.0 | 1.0 | 0.00 | 0.00 | 0.00 | 38 | 4240.9 |
| 20260504172652 | 80 | 94 | 2.0 | 2.0 | 0.00 | 0.00 | 0.00 | 38 | 4240.9 |
| 20260504172148 | 81 | 159 | 2.0 | 2.0 | 0.00 | 0.00 | 0.00 | 39 | 4241.1 |
| 20260504171645 | 80 | 178 | 4.0 | 7.0 | 0.00 | 0.00 | 0.00 | 37 | 4241.3 |
| 20260504171142 | 79 | 67 | 4.0 | 6.0 | 0.00 | 0.00 | 0.00 | 37 | 4241.0 |
| 20260504170638 | 79 | 110 | 3.0 | 6.0 | 0.00 | 0.00 | 0.00 | 38 | 4241.3 |
| 20260504170136 | 79 | 129 | 2.0 | 2.0 | 0.00 | 0.00 | 0.00 | 38 | 4241.3 |
| 20260504151027 | 73 | 189 | 2.0 | 3.0 | 0.00 | 0.00 | 0.00 | 51 | 4242.3 |
| 20260504150525 | 73 | 178 | 2.0 | 3.0 | 0.00 | 0.00 | 0.00 | 49 | 4242.4 |
| 20260504140956 | 69 | 148 | 2.0 | 2.0 | 0.00 | 0.00 | 0.00 | 60 | 4242.6 |
| 20260504140453 | 68 | 181 | 1.0 | 2.0 | 0.00 | 0.00 | 0.00 | 61 | 4242.9 |
| 20260504130417 | 62 | 167 | 0.0 | 1.0 | 0.00 | 0.00 | 0.00 | 72 | 4242.7 |
| 20260504110304 | 59 | 171 | 1.0 | 1.0 | 0.00 | 0.00 | 0.00 | 74 | 4242.3 |
| 20260504100222 | 60 | 179 | 1.0 | 1.0 | 0.00 | 0.00 | 0.00 | 71 | 4242.1 |